Location: Saint-Maurice-d�Ard�che
(44.5216°N, 4.4002°E)
Time: 22:05:36
(UTC+00:00)

Cosmos 2084 Rocket - Pass Details

Date: 30 March 2020
Orbit: 562 x 619 km, 62.8° (Epoch: 24 May)

Event Time Altitude Azimuth Distance (km) Brightness Sun altitude
Rises 20:37:06 0° 317° (NW) 2,883 8.3 -25.5°
Reaches altitude 10° 20:39:24 10° 313° (NW) 1,980 7.2 -25.8°
Enters shadow 20:43:30 50° 250° (WSW) 788 4.2 -26.4°
